Location: Bule D?s
(35.8775°N, 74.7411°E)
Time: 22:23:30
(UTC+00:00)

Daily predictions for brighter satellites

Satellite Brightness Start Highest point End
(mag) Time Altitude Azimuth Time Altitude Azimuth Time Altitude Azimuth
H-2A R/B 3.0 12:46:50 10° S 12:50:41 78° WSW 12:54:35 10° NNW
Cosmos 1626 2.0 12:48:20 10° N 12:52:04 80° E 12:55:46 10° S
Cosmos 1758 4.0 12:50:19 10° SSW 12:54:14 58° W 12:58:10 10° N
Cosmos 1726 3.3 12:51:25 10° SE 12:54:15 21° E 12:57:05 10° NE
Cosmos 1821 Rocket 4.1 12:51:21 10° N 12:57:19 53° E 13:03:19 10° SSE
ASTEX 1 3.7 12:52:45 10° NNE 12:57:30 46° E 13:02:15 10° SSE
Cosmos 1726 Rocket 3.7 12:53:57 10° S 12:58:14 52° E 13:02:30 10° NNE
Nadezhda 3 Rocket 4.0 12:52:33 10° S 12:58:47 79° E 13:05:07 10° N
Okean-O 2.9 12:56:41 10° S 13:01:06 76° WSW 13:05:33 10° NNW
Ariane Rocket 4.4 12:58:58 10° ESE 13:02:18 18° ENE 13:05:38 10° NNE
Cosmos 968 Rocket 3.7 12:57:16 10° N 13:02:23 48° ENE 13:07:26 10° SE
OAO 2 Rocket 3.5 12:57:35 10° W 13:02:51 79° S 13:07:53 12° E
Cosmos 1844 Rocket 2.9 12:59:00 10° SSW 13:04:38 77° WNW 13:10:19 10° NNE
Meteor 1-16 Rocket 4.3 12:59:37 10° SSE 13:05:04 51° E 13:10:22 10° NNE
Cosmos 2058 Rocket 3.4 13:03:32 10° SSE 13:07:37 41° E 13:11:43 10° NNE
ASTRO E2 4.4 13:05:03 10° WSW 13:08:27 26° SSW 13:11:49 10° SE
Meteor 2-10 4.4 13:04:14 10° SSE 13:08:59 39° E 13:13:41 10° NNE
OAO 3 Rocket 3.4 13:04:57 10° WSW 13:09:49 63° SSE 13:14:02 14° E
Cosmos 1992 Rocket 4.3 13:05:54 10° SSW 13:11:06 73° WNW 13:16:21 10° NNE
Cosmos 2228 3.0 13:07:52 10° S 13:12:15 83° E 13:16:38 10° N
Cosmos 1934 Rocket 4.3 13:06:30 10° N 13:12:32 45° E 13:18:34 10° SSE
Cosmos 1939 Rocket 4.2 13:10:35 10° ESE 13:13:29 20° ENE 13:16:25 10° NNE
Cosmos 1503 Rocket 3.9 13:11:13 10° N 13:16:21 63° ENE 13:21:28 10° SSE
Meteor 1-21 Rocket 4.3 13:11:10 10° N 13:17:04 85° E 13:22:50 10° S
Cosmos 1242 Rocket 3.4 13:15:23 10° NNE 13:18:38 29° ENE 13:21:51 10° SE
Cosmos 2278 Rocket 2.9 13:15:24 10° SSE 13:20:18 31° ESE 13:25:13 10° NE
Cosmos 1844 4.1 13:17:53 10° SSW 13:23:32 68° WNW 13:29:16 10° NNE
Cosmos 921 Rocket 3.1 13:19:30 10° SSW 13:24:01 90° SW 13:28:32 10° NNE
Lacrosse 5 rocket 2.2 13:20:56 10° NNW 13:24:16 28° NE 13:25:57 21° E
Abrixas rocket 2.6 13:23:17 10° SSW 13:26:09 37° SE 13:27:16 26° E
Shenzhou-11 Module 3.5 13:24:25 10° WNW 13:26:46 24° NNW 13:28:15 16° NNE
CZ-4 R/B 4.4 13:22:50 10° SSE 13:26:57 88° W 13:31:05 10° NNW
COSMO-SKYMED 1 3.6 13:27:34 10° N 13:31:46 49° WNW 13:35:56 10° SSW
CZ-4 R/B 1.5 13:27:43 10° S 13:31:49 81° W 13:36:01 10° NNW
Cosmos 1908 3.5 13:28:09 10° SSE 13:31:53 45° E 13:35:38 10° NNE
YAOGAN 6 2.9 13:32:08 10° S 13:35:49 72° W 13:39:28 10° NNW
ATLAS 5 CENTAUR R/B 4.1 13:33:16 10° W 13:36:17 18° NW 13:39:29 10° N
Cosmos 1328 3.8 13:35:13 10° N 13:39:07 53° E 13:42:58 10° SSE
USA 116 4.3 13:40:11 10° N 13:43:13 47° WNW 13:46:27 10° SSW
EO 1 Delta rocket 3.7 13:39:33 10° SSE 13:44:18 74° E 13:48:56 10° N
Cosmos 1953 Rocket 4.0 13:40:49 10° NNW 13:45:08 63° W 13:49:24 10° S
Cosmos 292 Rocket 3.7 13:40:29 10° SSW 13:45:13 87° WNW 13:50:00 10° NNE
CSL-04 Rocket 3.9 13:43:41 10° S 13:49:14 76° WSW 13:54:47 10° NNW
Cosmos 2285 Rocket 4.5 13:44:18 10° NNW 13:50:39 64° WSW 13:56:57 10° S
NOAA 11 4.1 13:46:25 10° SSE 13:51:48 65° ENE 13:57:11 10° N
Cosmos 489 Rocket 4.5 13:45:37 10° SSW 13:51:50 84° WNW 13:58:05 10° NNE
IUS-18 SRM-1 3.9 14:03:01 10° WSW 14:07:27 21° S 14:07:50 21° S
CZ-2D R/B 3.6 14:06:39 10° S 14:10:27 65° W 14:14:17 10° NNW
ADEOS Rocket 3.7 14:04:05 10° NNE 14:11:16 42° E 14:17:56 10° SSE
Cosmos 1833 Rocket 3.6 14:06:23 10° N 14:10:25 30° NE 14:10:25 30° NE
Atlas Centaur 2 4.4 14:12:46 10° WSW 14:15:16 13° SW 14:17:34 10° S
SL-4 R/B 2.1 14:11:47 10° NW 14:14:51 57° NW 14:14:51 57° NW
CZ-4C R/B 4.1 14:11:42 10° NW 14:18:55 45° WSW 14:26:45 10° S
IRS-1A Rocket 4.1 14:17:59 19° SSE 14:22:02 89° ENE 14:27:34 10° NNW
MOS 1 4.1 14:22:16 52° SE 14:23:34 69° ENE 14:29:11 10° N
COSMOS 2406 3.2 14:20:44 10° NNW 14:26:32 86° WSW 14:28:29 43° SSE
USA 238 DEB 3.5 14:20:55 10° SSW 14:27:32 77° ESE 14:30:32 36° NE
USA 238 3.5 14:21:01 10° SSW 14:27:39 77° ESE 14:30:32 37° NE
Cosmos 2082 Rocket 3.6 14:23:37 10° N 14:26:28 24° NNE 14:26:28 24° NNE
USA 234 3.1 14:38:57 63° ENE 14:40:00 75° SE 14:46:31 10° SW
Cosmos 839 Rocket 4.2 14:33:57 10° NNW 14:40:18 79° WSW 14:42:55 42° SSE
Ariane Rocket 3.8 14:36:00 10° S 14:40:48 49° W 14:45:46 10° NNW
Cosmos 1727 Rocket 4.4 14:37:09 10° SSW 14:43:15 61° W 14:49:22 10° N
OAO 2 Rocket 3.8 14:42:22 10° W 14:46:50 60° WSW 14:46:50 60° WSW
OAO 3 Rocket 4.2 14:48:20 10° W 14:51:50 46° W 14:51:50 46° W
NOSS 3-2 (A) 3.5 14:49:13 10° SW 14:53:49 62° SW 14:53:49 62° SW
Lacrosse 5 rocket 3.8 15:00:00 10° WNW 15:01:39 20° W 15:01:39 20° W
H-2A R/B 3.9 15:07:15 22° N 15:07:15 22° N 15:09:06 10° N
Cosmos 2278 Rocket 3.8 14:59:13 10° SW 15:04:15 32° WNW 15:09:20 10° N
CZ-3B R/B 4.5 14:54:07 10° W 15:15:51 59° SSW 15:21:19 47° SSE
Lacrosse 5 4.4 15:16:48 10° NNW 15:17:32 13° NNW 15:17:32 13° NNW
Cosmos 1844 Rocket 4.4 22:01:27 28° ENE 22:01:27 28° ENE 22:05:20 10° ESE
Cosmos 2333 Rocket 3.6 22:11:18 35° E 22:11:18 35° E 22:15:50 10° NE
ADEOS 4.2 22:31:49 10° NNE 22:35:54 51° NE 22:35:54 51° NE
USA 267 4.4 22:32:35 10° NNE 22:37:14 28° NNW 22:37:14 28° NNW
Meteor 2-16 Rocket 4.4 22:42:44 78° NNE 22:42:44 78° NNE 22:48:23 10° N
Cosmos 2219 Rocket 2.1 22:48:34 79° E 22:48:34 79° E 22:54:05 10° NNE
Cosmos 2237 Rocket 3.9 22:48:55 10° SSE 22:53:47 31° ESE 22:58:42 10° NE
COSMOS 2455 3.5 23:00:53 39° NNW 23:00:53 39° NNW 23:05:24 10° NNE
COSMOS 2428 2.5 23:01:09 77° WSW 23:01:26 80° WNW 23:07:08 10° NNE
NOSS 3-4 (A) 4.3 23:00:12 14° S 23:05:02 46° ESE 23:10:52 10° NE
NOSS 3-4 (C) 4.3 23:00:10 13° S 23:05:07 45° ESE 23:10:58 10° NE
H-2A R/B 2.7 23:03:15 10° NNE 23:06:46 63° NNE 23:06:46 63° NNE
USA 234 3.2 23:02:22 10° SE 23:08:55 84° NE 23:12:56 26° NW
Cosmos 1025 Rocket 2.9 23:14:32 47° S 23:15:41 81° E 23:19:58 10° N
Cosmos 2360 Rocket 4.0 23:21:29 15° NNW 23:21:29 15° NNW 23:23:13 10° NNW
CZ-2C R/B 2.7 23:17:32 10° NNE 23:22:45 74° ESE 23:27:52 10° S
IDEFIX/ARIANE 42P 2.9 23:17:56 10° N 23:22:26 43° WNW 23:22:26 43° WNW
Meteor 1-31 Rocket 3.2 23:22:04 10° NNE 23:25:50 59° E 23:29:33 10° S
ERBS 2.7 23:27:12 55° NNE 23:27:12 55° NNE 23:29:58 10° NE
Cosmos 1536 Rocket 3.4 23:26:38 62° W 23:26:48 62° W 23:31:06 10° N
Fregat R/B Cluster 11 3.3 23:29:58 79° WSW 23:30:07 85° WNW 23:35:19 10° NNE
Cosmos 921 Rocket 4.0 23:28:41 10° N 23:32:50 47° ENE 23:36:54 10° SSE
Cosmos 1842 4.4 23:35:00 28° NNW 23:35:00 28° NNW 23:37:12 10° N
ATLAS 3B R/B 4.4 23:28:29 10° NNW 23:34:20 30° NE 23:40:15 10° ESE
Cosmos 1470 3.8 23:30:35 10° N 23:34:22 47° E 23:38:07 10° SSE
Cosmos 1707 3.6 23:32:16 10° S 23:36:03 50° E 23:39:51 10° NNE
Cosmos 389 Rocket 3.5 23:33:25 10° S 23:36:42 45° E 23:39:59 10° NNE
Cosmos 1733 3.1 23:34:46 10° NNW 23:38:35 60° W 23:42:21 10° S
Aureole 1 Rocket 4.3 23:35:11 26° SW 23:38:37 43° WNW 23:43:59 10° N
PAYLOAD A 3.9 23:35:02 10° N 23:39:47 59° WNW 23:44:40 10° SSW
Meteor PRIRODA 4.3 23:36:45 10° NNE 23:40:27 55° E 23:44:06 10° S
Cosmos 2184 Rocket 3.9 23:34:55 10° S 23:41:06 88° W 23:47:22 10° N
Cosmos 1992 Rocket 4.0 23:36:05 10° NNW 23:41:11 57° WSW 23:46:15 10° S
Cosmos 1484 Rocket 4.2 23:40:00 10° NNE 23:43:33 38° E 23:47:08 10° SSE
Cosmos 1844 Rocket 3.2 23:43:18 30° W 23:44:20 33° WSW 23:49:13 10° SSW
SL-16 R/B 4.2 23:39:44 10° SSE 23:44:33 30° ESE 23:49:24 10° NE
ATLAS 2AS CENTAUR R/B 3.1 23:38:49 16° SW 23:45:15 64° NW 23:53:17 10° NNE
Cosmos 614 Rocket 4.0 23:40:17 10° SSW 23:45:31 88° ESE 23:50:46 10° NNE
IUS-9 SRM-1 3.9 23:45:18 13° S 23:46:20 15° SSE 23:48:51 10° ESE
CENTAUR R/B 4.1 23:41:35 10° NNW 23:49:25 48° NE 23:57:44 10° SE
ALOS 4.5 23:46:03 10° NE 23:50:05 28° E 23:54:04 10° SSE
NOSS 3 (A) 4.2 23:52:34 56° W 23:52:50 61° WNW 23:55:34 10° NNE
MSX 4.3 23:49:16 10° N 23:54:29 37° WNW 23:59:42 10° SW
Cosmos 2333 Rocket 3.1 23:53:23 24° W 23:54:58 28° WNW 23:59:49 10° N
